Trail de Xhoffraix 26/09/2015 - 38 Km
Place Nom Prénom Temps Vitesse Allure Place. Cat. Cat. Club
1 VAN GASSE ETIENNE 586 2:41:49 14,1 4:15 1 S 1797
2 REMACLE OLIVIER 674 2:49:30 13,5 4:27 2 S 1441
3 HUBSCH THIERRY 140 2:51:27 13,3 4:30 3 S
4 BUCCI NICOLA 303 2:52:52 13,2 4:32 4 S 1561
5 LAUWERS FILIP 253 2:54:57 13,0 4:36 5 S
6 BERTELS JELLE 721 2:58:31 12,8 4:41 6 S
7 MAGNEE FABIAN 58 2:59:16 12,7 4:43 1 V1 2988
8 DEVILLE MATHIEU 728 3:00:16 12,6 4:44 7 S
9 LANGER THORSTEN 734 3:01:56 12,5 4:47 2 V1
10 BASTIN MICHEL 341 3:04:33 12,4 4:51 8 S 4456
11 DEWAELE KAREL 143 3:05:10 12,3 4:52 3 V1 6033
12 VANDERSCHAEGHE JÉROME 427 3:06:36 12,2 4:54 9 S
13 DELMEE GILLES 667 3:06:56 12,2 4:55 10 S
14 HILGER-SCHÌLTZ JEROME 163 3:08:25 12,1 4:57 4 V1 3882
15 PONSARD JULIEN 127 3:10:35 12,0 5:00 11 S
16 WAUMANS SIL 16 3:11:41 11,9 5:02 12 S
17 BASTIN CHRISTIAN 827 3:12:07 11,9 5:03 13 S
18 ZLOTOROWIEZ SÉBASTIEN 512 3:12:19 11,9 5:03 5 V1
19 BOUCARD GEOFFROY 682 3:13:40 11,8 5:05 14 S
20 NEIMRY DIMITRI 327 3:14:04 11,7 5:06 15 S 4584
21 CNUDDE KEVIN 276 3:15:25 11,7 5:08 16 S
22 DESCAMPS OLIVIER 90 3:15:26 11,7 5:08 1 V2
23 HENROTTE SÉBASTIEN 317 3:15:46 11,6 5:09 6 V1
24 LIAGRE DIERIK 245 3:16:45 11,6 5:10 17 S
25 DE BEUKELAER TOM 673 3:17:03 11,6 5:11 18 S
26 BONNIE CHRISTOPH 588 3:18:32 11,5 5:13 7 V1
27 KEUTGENS MARIO 160 3:19:22 11,4 5:14 8 V1 3997
28 CANTRAINE FRANCOIS 372 3:19:26 11,4 5:14 19 S
29 BURETTE SÉBASTIEN 118 3:20:00 11,4 5:15 20 S
30 GRÉGOIRE JOEL 469 3:20:10 11,4 5:16 9 V1
31 ZEINSTRA JEROEN 45 3:21:00 11,3 5:17 10 V1
32 JAVIER ORDIERES TORRE 377 3:21:58 11,3 5:18 21 S
33 GEBRUERS DANIEL 660 3:22:40 11,2 5:20 22 S
34 MOREAU BERNARD 686 3:22:48 11,2 5:20 11 V1
35 LATIN THOMAS 790 3:22:50 11,2 5:20 23 S
36 RECKER MARCEL 690 3:22:53 11,2 5:20 2 V2
37 PETRY CEDRIC 261 3:23:00 11,2 5:20 24 S
38 GABORIEAU STEPHANE 832 3:24:21 11,2 5:22 25 S
39 ROEHL WILLY 736 3:24:41 11,1 5:23 12 V1
40 VAN DYCK DIMITRI 625 3:25:50 11,1 5:25 26 S
41 PELLISSIER OLIVIER 200 3:26:11 11,1 5:25 27 S
42 VERVECKEN BERT 358 3:26:20 11,0 5:25 13 V1
43 GENTGEN MAEL 798 3:26:26 11,0 5:25 28 S
44 DAWIRS OLIVIER 46 3:26:27 11,0 5:25 29 S
45 LAMBOTTE BENOIT 797 3:27:16 11,0 5:27 30 S
46 BONANTS RONALD 349 3:27:26 11,0 5:27 31 S
47 VERRUE VINCENT 657 3:28:01 11,0 5:28 32 S
48 TORFS SANNE 144 3:28:06 11,0 5:28 33 S
49 VAN HOECK VEERLE 234 3:28:07 11,0 5:28 1 D
50 SALMON ARNAUD 635 3:28:35 10,9 5:29 34 S
51 MALHERBE XAVIER 520 3:28:38 10,9 5:29 35 S
52 CHAPA BENJAMIN 400 3:28:38 10,9 5:29 14 V1
53 COLLIGNON ARNAUD 212 3:29:05 10,9 5:30 36 S
54 VAN DEN BERGH BENJAMIN 651 3:29:16 10,9 5:30 37 S
55 VERSCHUEREN ERIC 287 3:29:25 10,9 5:30 3 V2
56 FALISSE GAIZKA 613 3:30:01 10,9 5:31 38 S
57 JORIS JACOBS 436 3:30:18 10,8 5:32 39 S
58 DE MONTJOYE GRÉGORY 367 3:30:32 10,8 5:32 40 S
59 MALEVÉ BÉRENGÈRE 404 3:30:34 10,8 5:32 1 A1 2685
60 RENARD TONY 669 3:31:11 10,8 5:33 41 S
61 MAGINELLE STEF 511 3:31:29 10,8 5:33 15 V1
62 MIKOLAJCZYK TOM 109 3:31:37 10,8 5:34 42 S
63 AMANN STEFAN 587 3:32:08 10,7 5:34 4 V2
64 JEUNEJEAN FELIX 437 3:32:28 10,7 5:35 43 S
65 FISCHER TOM 213 3:32:32 10,7 5:35 44 S
66 AYRAL NICOLAS 383 3:32:33 10,7 5:35 45 S
67 DE DECKKER CHRISTOPHE 113 3:32:42 10,7 5:35 16 V1
68 RASQUAIN BENOIT 107 3:32:48 10,7 5:36 17 V1
69 HERPERS JEAN 665 3:32:53 10,7 5:36 18 V1
70 LACROSSE WILLIAM 282 3:33:15 10,7 5:36 46 S 1411
71 MAURIES LAURENT 310 3:34:37 10,6 5:38 19 V1
72 MEEUS DANNY 661 3:35:22 10,6 5:40 20 V1
73 BRUWIER MARTIN 135 3:35:40 10,6 5:40 47 S
74 DEVOS JIMMY 318 3:36:11 10,5 5:41 48 S
75 FREVILLE GEOFFREY 251 3:36:23 10,5 5:41 49 S
76 JOBKEN OLIVIER 321 3:36:24 10,5 5:41 50 S
77 LOMBA RENAUD 448 3:36:36 10,5 5:42 51 S
78 ROHÉ KARLHEINZ 333 3:36:41 10,5 5:42 5 V2
79 FRANSSEN ANDREAS 649 3:36:49 10,5 5:42 6 V2
80 JACOB-PAQUAY ERIC 343 3:37:05 10,5 5:42 21 V1
81 VAN RANST WIEBE 655 3:37:34 10,5 5:43 52 S
82 LUSTENHOUWER IVO 120 3:38:15 10,4 5:44 53 S
83 WOZNA MONIKA 416 3:38:27 10,4 5:44 2 A1
84 DAUNE SÉBASTIEN 274 3:38:30 10,4 5:45 54 S
85 DERCKX ROEL 786 3:39:00 10,4 5:45 22 V1
86 VANWERSCH BERT 787 3:39:00 10,4 5:45 23 V1
87 BOSCH JOHN 676 3:39:00 10,4 5:45 7 V2
88 MARTENS BOB 443 3:39:03 10,4 5:45 55 S
89 FRANCOIS JEAN-PHILIPPE 463 3:39:11 10,4 5:46 56 S
90 BAILLEZ JOHNNY 382 3:39:18 10,4 5:46 8 V2
91 STEENSELS MICHIEL 640 3:40:09 10,4 5:47 57 S
92 HAPERS LUC 331 3:40:39 10,3 5:48 24 V1
93 PARMENTIER FRANCOIS 102 3:40:45 10,3 5:48 58 S
94 BODART OLIVIER 618 3:40:48 10,3 5:48 25 V1
95 WAUMANS BART 17 3:41:09 10,3 5:49 9 V2
96 SKOVGAARD MICHAEL 808 3:41:14 10,3 5:49 26 V1
97 GIVRON REGIS 813 3:41:16 10,3 5:49 59 S
98 RICHARD BASILE 644 3:41:33 10,3 5:49 60 S 1154
99 FIGEYS ARNOUT 411 3:41:55 10,3 5:50 61 S
100 PIERARD MICHEL 158 3:42:32 10,2 5:51 27 V1
101 GILLYMS MATTHIAS 830 3:42:43 10,2 5:51 62 S
102 GÉNICQ ALBAN 40 3:42:51 10,2 5:51 63 S
103 VERRIEST DAMIEN 363 3:42:54 10,2 5:51 64 S
104 BAAR GRÉGORY 689 3:43:17 10,2 5:52 65 S
105 OST VINCENT 12 3:43:27 10,2 5:52 66 S
106 BASTIN YOANN 668 3:44:20 10,2 5:54 67 S
107 LEONET MARTIN 812 3:44:26 10,2 5:54 68 S
108 ROSEN MARC 384 3:44:46 10,1 5:54 10 V2
109 SCHOUPPE ANDY 504 3:44:52 10,1 5:55 69 S
110 BAYOT ANNE-CATHERINE 28 3:45:07 10,1 5:55 3 A1
111 BARBIER CHRISTOPHE 226 3:45:07 10,1 5:55 28 V1
112 VAN GILS JAN 88 3:45:31 10,1 5:56 29 V1
113 HAMMER DIRK 248 3:45:35 10,1 5:56 30 V1
114 DOKIA JORIS 634 3:46:47 10,1 5:58 70 S
115 IMMERZEEL GEERT 131 3:46:56 10,0 5:58 31 V1
116 NUTTIN JULIEN 266 3:47:34 10,0 5:59 71 S
117 PLEIJSIER ROEMER 62 3:47:43 10,0 5:59 72 S
118 JOLY ILKA 142 3:47:45 10,0 5:59 4 A1 3146
119 HERMANS DANNY 658 3:48:15 10,0 6:00 32 V1
120 PIJCKE GAUTIER 27 3:48:33 10,0 6:00 73 S
121 DE MEO MARINO 632 3:48:34 10,0 6:00 11 V2
122 STALS CHRISTOPHE 820 3:48:43 10,0 6:01 74 S
123 DUCAMP JACQUES 79 3:48:48 10,0 6:01 33 V1
124 LAOUREUX DENIS 106 3:48:55 10,0 6:01 34 V1
125 VAN DER MEER BOUKE 75 3:49:26 9,9 6:02 75 S
126 VERSTRAETE KRISTOF 693 3:49:28 9,9 6:02 76 S
127 FRACASSI BRUNO 104 3:49:31 9,9 6:02 35 V1 3684
128 THIEBAUX THIERRY 637 3:49:36 9,9 6:02 12 V2
129 XHROUET ALAIN 450 3:50:26 9,9 6:03 36 V1
130 DOUTRELOUX FRANCOIS 705 3:50:38 9,9 6:04 77 S
131 VANDEVENNE BART 271 3:50:51 9,9 6:04 78 S
132 MATTHEE ALEXANDRE 737 3:51:09 9,9 6:04 37 V1
133 VIS STEPHAN 733 3:51:09 9,9 6:04 38 V1
134 COLINET STEVE 793 3:51:38 9,8 6:05 79 S
135 JAMAR CHRISTOPHE 55 3:51:44 9,8 6:05 80 S
136 DISPAS CÉLINE 451 3:51:48 9,8 6:06 5 A1 2931
137 DESMET WOUTER 283 3:52:58 9,8 6:07 81 S
138 DE MAESSCHALCK ERIC 388 3:53:27 9,8 6:08 39 V1
139 DEGEY JEAN PHILIPPE 805 3:53:50 9,8 6:09 40 V1
140 LEROY DAGOBERT 713 3:53:50 9,8 6:09 82 S
141 LORIAUX EMILIE 380 3:54:17 9,7 6:09 2 D 1025
142 MARTIN ANTOINE 313 3:54:18 9,7 6:09 83 S
143 HENROTTE GONTRAN 449 3:54:23 9,7 6:10 84 S
144 DOMEN TOM 664 3:54:28 9,7 6:10 41 V1
145 GENTEN FRANK 696 3:55:02 9,7 6:11 42 V1
146 HARDY PATRICK 407 3:55:05 9,7 6:11 13 V2
147 VERTE PATRICK 806 3:55:56 9,7 6:12 85 S
148 BLIN FREDERIC 178 3:55:58 9,7 6:12 43 V1
149 PETERS STEPHAN 735 3:56:04 9,7 6:12 86 S
150 VAN VLAENDEREN RAPHAEL 810 3:56:15 9,7 6:13 44 V1
151 PETIT AXEL 700 3:56:15 9,7 6:13 45 V1
152 MERCIER MICHEL 623 3:57:59 9,6 6:15 HSC
153 RESENTE LORENZO 680 3:58:22 9,6 6:16 87 S
154 BERTRAND YVES 521 3:58:34 9,6 6:16 46 V1
155 VANSPAUWEN FRANK 49 3:58:36 9,6 6:16 47 V1
156 FRANSOLET YVES 703 3:58:48 9,5 6:17 14 V2
157 PIQUERAY STÉPHANE 707 3:58:48 9,5 6:17 15 V2
158 PANDELAERE JOHNNY 235 3:59:07 9,5 6:17 1 V3
159 DELECLUSE JEAN-FRANCOIS 185 3:59:12 9,5 6:17 48 V1
160 HOLLEBECQUE FREDERIC 193 3:59:12 9,5 6:17 49 V1
161 GHESTEM FRANCOIS 189 3:59:13 9,5 6:17 1 A2
162 CRICKBOOM GUILLAUME 585 3:59:26 9,5 6:18 88 S
163 TOURBACH FRANCOIS 691 3:59:32 9,5 6:18 89 S
164 MORAY PIERRE JEAN 794 3:59:44 9,5 6:18 50 V1
165 LEO MARC 677 3:59:46 9,5 6:18 16 V2
166 FRAINEUX JEROME 714 3:59:48 9,5 6:18 90 S
167 DELVENNE JEAN-FRANCOIS 715 3:59:53 9,5 6:18 51 V1
168 DELIENS MATHIEU 246 4:00:42 9,5 6:20 91 S
169 BONJEAN STÉPHANE 324 4:01:14 9,5 6:20 52 V1
170 HOUBEN ERIC 505 4:01:17 9,4 6:20 53 V1
171 BECO THOMAS 47 4:01:20 9,4 6:21 92 S
172 FOHAL JEAN-LUC 314 4:01:23 9,4 6:21 17 V2
173 KÜPPER ASTRID 630 4:01:28 9,4 6:21 6 A1
174 BUET THOMAS 395 4:01:37 9,4 6:21 93 S
175 WATTIAUX COLI 24 4:01:37 9,4 6:21 94 S
176 MOURAD CHRISTOPHE 477 4:01:40 9,4 6:21 54 V1
177 DE KESEL SOFIE 645 4:01:48 9,4 6:21 3 D
178 SIMONIS FABIAN 425 4:02:00 9,4 6:22 95 S
179 GRANVILLE DIMITRI 339 4:02:06 9,4 6:22 55 V1
180 DELREZ AMAURY 627 4:02:15 9,4 6:22 96 S
181 PONCIN VINCENT 244 4:02:18 9,4 6:22 97 S
182 PIRET GAUTHIER 612 4:02:20 9,4 6:22 98 S
183 MÜLLENDER JULIEN 817 4:02:45 9,4 6:23 99 S
184 HELLEMANNS ERIC 394 4:03:00 9,4 6:23 56 V1
185 SOHET BERNARD 648 4:03:32 9,4 6:24 18 V2
186 DEPIERREUX EMILE 136 4:03:36 9,4 6:24 57 V1
187 MAILLEUX THIERRY 267 4:03:42 9,4 6:24 58 V1
188 HARVENGT AMÉLIE 355 4:03:52 9,3 6:25 4 D
189 SCHOLL MICHAEL 42 4:04:23 9,3 6:25 100 S
190 BOUCHEZ CÉDRIC 139 4:04:39 9,3 6:26 101 S
191 GODON ANNE 322 4:04:43 9,3 6:26 2 A2
192 LEGROS RAPHAEL 454 4:05:08 9,3 6:27 102 S
193 DEHOVE LUC 111 4:05:28 9,3 6:27 59 V1
194 VENOT PIERRE 240 4:05:40 9,3 6:27 103 S
195 LONEZ THOMAS 379 4:06:02 9,3 6:28 104 S
196 SOKAY THOMAS 381 4:06:44 9,2 6:29 105 S 1798
197 SACRE BENOIT 723 4:07:04 9,2 6:30 19 V2
198 ORIS MARIO 659 4:07:09 9,2 6:30 60 V1
199 KAIN ALI 702 4:07:44 9,2 6:31 61 V1
200 GODEFROID RENAUD 478 4:07:49 9,2 6:31 106 S
201 LAUREYS PIERRE 617 4:07:50 9,2 6:31 20 V2
202 TYS MAXIME 165 4:07:55 9,2 6:31 107 S
203 LEROY JEAN 152 4:08:12 9,2 6:31 108 S
204 HANSSEN RÉGIS 264 4:08:12 9,2 6:31 109 S
205 REMACLE MAXIME 373 4:08:15 9,2 6:31 110 S
206 DEWAELE STEVEN 302 4:08:22 9,2 6:32 HSC
207 SCHREUR JULIEN 799 4:08:31 9,2 6:32 111 S
208 WATROBA NICOLAS 800 4:08:32 9,2 6:32 112 S
209 LECHAT LOUIS 217 4:08:34 9,2 6:32 21 V2
210 BOSKIN BERNARD 710 4:08:35 9,2 6:32 113 S
211 JEWASINSKI MICHEL 434 4:09:31 9,1 6:33 62 V1
212 MAGIS JEAN-BENOIT 84 4:09:43 9,1 6:34 63 V1
213 BORN MARGOT 337 4:09:43 9,1 6:34 1 A3 2711
214 HEYNS CHRISTOPHE 731 4:10:17 9,1 6:35 64 V1
215 PONS SEBASTIEN 323 4:10:46 9,1 6:35 114 S
216 NOPPE JEAN-PIERRE 599 4:10:52 9,1 6:36 65 V1
217 VERVY QUENTIN 647 4:10:52 9,1 6:36 115 S
218 KOWALCZYK BENOIT 704 4:10:52 9,1 6:36 116 S
219 HALKIN DIDIER 695 4:11:40 9,1 6:37 66 V1
220 TABOURET MARC 203 4:11:43 9,1 6:37 67 V1
221 GALVEZ GAUTHIER 11 4:11:47 9,1 6:37 117 S 4388
222 SIMON JULIEN 819 4:13:05 9,0 6:39 118 S
223 VERELLEN FRANKY 727 4:13:32 9,0 6:40 68 V1
224 VOCHTEN KRISTEL 336 4:13:33 9,0 6:40 7 A1 6926
225 MALHERBE BENOIT 672 4:13:58 9,0 6:41 119 S
226 PETERS PIERRE 252 4:14:01 9,0 6:41 120 S
227 MARK VAN WEES 307 4:14:15 9,0 6:41 22 V2
228 SIEBENBOUR MICHEL 422 4:14:28 9,0 6:41 69 V1
229 DESTOOP PETER 639 4:14:32 9,0 6:41 70 V1
230 VANDENDRIESSCHE MICHAEL 446 4:14:35 9,0 6:41 121 S
231 BORTOLOTTI EMMANUEL 344 4:14:37 9,0 6:42 122 S
232 JAMAR JULIEN 301 4:14:54 8,9 6:42 123 S
233 SIMONSE EVA 258 4:14:59 8,9 6:42 5 D
234 BASTIANELLI FABIAN 224 4:15:13 8,9 6:42 71 V1
235 WAUTERS DIRK 291 4:15:16 8,9 6:43 72 V1
236 COPPE SIGRID 167 4:15:41 8,9 6:43 8 A1
237 GENREITH VINCENT 168 4:15:41 8,9 6:43 73 V1
238 ANDRE LUDIVINE 228 4:15:46 8,9 6:43 6 D
239 VAN BROEKHOVEN ERWIN 259 4:16:07 8,9 6:44 124 S
240 JENNIGES ALEXANDER 694 4:16:16 8,9 6:44 74 V1
241 DANCETTE ELODIE 112 4:16:42 8,9 6:45 7 D
242 RAUSSIN BERNARD 415 4:16:46 8,9 6:45 23 V2
243 BOVY CHRISTOPHE 329 4:16:49 8,9 6:45 75 V1
244 ROSSI DIDIER 468 4:17:04 8,9 6:45 76 V1
245 ROZENBERG SANDRINE 78 4:17:04 8,9 6:45 9 A1
246 VAN ENDERT PETER 675 4:17:18 8,9 6:46 125 S
247 DANNEMARK MAXIME 792 4:17:54 8,8 6:47 126 S
248 OLIVIER JEROME 340 4:17:56 8,8 6:47 127 S
249 GROOTAERS DIRK 137 4:17:58 8,8 6:47 128 S
250 HERZL PIERRE-YVES 20 4:18:00 8,8 6:47 77 V1
251 MURET PATRICK 789 4:18:07 8,8 6:47 78 V1
252 GARROY MURIELLE 709 4:18:10 8,8 6:47 10 A1
253 QUINTENS GERT 216 4:18:11 8,8 6:47 24 V2
254 RAUSCHEN ERIC 300 4:18:26 8,8 6:48 129 S
255 LAURENT FRÉDÉRIC 399 4:18:48 8,8 6:48 79 V1
256 SILKE THOMAS 818 4:18:56 8,8 6:48 80 V1
257 VERMEULEN STEFAN 2 4:19:20 8,8 6:49 130 S
258 HAGELSTEIN CHRISTIAN 250 4:19:33 8,8 6:49 131 S
259 VEREECKE MARC 671 4:19:35 8,8 6:49 81 V1
260 DUBUS MELISSA 187 4:20:29 8,8 6:51 8 D
261 PORTUGAL FREDERICO 129 4:20:30 8,8 6:51 132 S
262 ADAM GEROME 708 4:20:33 8,8 6:51 82 V1
263 PEFFER VINCENT 353 4:20:38 8,7 6:51 25 V2
264 ROOMANS CHRISTIAN 82 4:20:43 8,7 6:51 26 V2
265 BAYOT BERNARD 470 4:20:45 8,7 6:51 27 V2
266 STEVENS IVO 392 4:21:18 8,7 6:52 83 V1
267 BULTEEL MICHEL 831 4:21:44 8,7 6:53 28 V2
268 VAN OVEN BARRY 681 4:21:51 8,7 6:53 133 S
269 HEROUFOSSE DAVID 361 4:22:44 8,7 6:54 134 S
270 COLARD ANDREW 479 4:22:54 8,7 6:55 135 S
271 ADAM JEROEN 465 4:22:57 8,7 6:55 HSC
272 PAUWELS KRIS 814 4:23:06 8,7 6:55 84 V1
273 FAUCONNIER JEAN-FRANCOIS 541 4:23:15 8,7 6:55 85 V1
274 TOUSSAINT PATRICE 360 4:23:33 8,7 6:56 86 V1
275 MEYER GEOFFREY 164 4:24:09 8,6 6:57 136 S
276 GEURTS PETER 366 4:24:15 8,6 6:57 29 V2
277 MORROW PAIGE 330 4:24:17 8,6 6:57 9 D
278 MATAGNE CHRISTOPHE 471 4:24:20 8,6 6:57 137 S
279 DEFALQUE ALBAN 607 4:24:23 8,6 6:57 87 V1
280 BRIAMONT NICOLAS 544 4:24:38 8,6 6:57 138 S
281 PEETERS KURT 33 4:25:02 8,6 6:58 88 V1
282 MARISSIAUX BERTRAND 653 4:25:05 8,6 6:58 89 V1
283 EL BALDI SAID 717 4:25:07 8,6 6:58 90 V1
284 MARÉCHAL DAVID 128 4:25:28 8,6 6:59 139 S
285 VERHOFSTADT FREDERIC 316 4:25:39 8,6 6:59 91 V1
286 KAYSER THIERRY 720 4:25:44 8,6 6:59 30 V2
287 PALGEN OLIVIER 729 4:26:12 8,6 7:00 140 S
288 NYSSEN PIERRE 834 4:26:19 8,6 7:00 92 V1
289 KRIER BENOIT 231 4:26:23 8,6 7:00 93 V1
290 DALEM PIERRE-YVES 386 4:26:46 8,5 7:01 94 V1
291 FRANCQ SÉBASTIEN 424 4:26:51 8,5 7:01 141 S
292 AVONDS JAN 545 4:26:53 8,5 7:01 95 V1
293 LACOQUELLE HUGUES 194 4:26:58 8,5 7:01 96 V1
294 MICHEL ERICE 198 4:26:58 8,5 7:01 31 V2
295 STATSYNS JEAN-FRANCOIS 678 4:27:14 8,5 7:01 97 V1
296 COOLEN LAURENT 207 4:27:46 8,5 7:02 142 S
297 MARIEN FRANK 826 4:28:10 8,5 7:03 98 V1
298 VAN ORSHAEGEN LOUIS 440 4:28:13 8,5 7:03 2 V3
299 VERCAMMEN MAARTEN 435 4:28:15 8,5 7:03 143 S
300 SNYERS JEROME 824 4:28:17 8,5 7:03 144 S
301 MEYERS GREGORY 59 4:28:36 8,5 7:04 145 S
302 HEUSCH VINCENT 122 4:28:38 8,5 7:04 99 V1
303 MATTIUZ FABIAN 69 4:28:40 8,5 7:04 146 S
304 YVES YVES 397 4:29:10 8,5 7:05 100 V1
305 LEMAIRE CÉDRIC 837 4:29:11 8,5 7:05 147 S
306 VAN DEN HAUWE MICKAEL 730 4:29:16 8,5 7:05 148 S
307 BAIWY OLIVIA 791 4:29:45 8,5 7:05 10 D
308 VANDORPE WOUTER 296 4:29:55 8,4 7:06 149 S
309 JONNIEAUX BENOIT 288 4:29:57 8,4 7:06 150 S
310 DE MOOR AUDREY 684 4:30:00 8,4 7:06 11 D
311 TIMPERMAN KOEN 646 4:30:08 8,4 7:06 101 V1
312 PIRENNE DAVID 162 4:30:10 8,4 7:06 102 V1
313 MARIEN LUC 822 4:30:19 8,4 7:06 32 V2
314 THUNUS FREDERIC 44 4:30:24 8,4 7:06 151 S
315 AOUICHA ANTOINE 595 4:30:26 8,4 7:07 152 S
316 EEUWIJK BERT 429 4:30:28 8,4 7:07 3 V3
317 PARSY DONAT 606 4:31:34 8,4 7:08 103 V1
318 COELEN PATRICK 328 4:31:48 8,4 7:09 104 V1
319 TAILLARD JEAN-PHILIPPE 804 4:31:49 8,4 7:09 153 S
320 RADERMECKER ISABELLE 23 4:31:51 8,4 7:09 11 A1
321 SOMVILLE PIERRE RENÉ 464 4:31:52 8,4 7:09 154 S
322 CNYRIN FABRICE 725 4:32:13 8,4 7:09 155 S
323 DEFOURNY SOPHIE 150 4:32:56 8,4 7:10 12 D
324 VANNEUFVILLE LAURENT 784 4:33:19 8,3 7:11 105 V1
325 ALEXANDRE SEBASTIEN 626 4:33:25 8,3 7:11 106 V1
326 BEAUDET CHRISTOPHE 176 4:33:30 8,3 7:11 107 V1
327 ROGEZ NICOLAS 161 4:34:10 8,3 7:12 156 S
328 GILIS DIDIER 285 4:34:50 8,3 7:13 33 V2
329 KAKIETEK DIANA 99 4:34:53 8,3 7:14 12 A1
330 LALLEMAND LUC 97 4:34:57 8,3 7:14 34 V2
331 FINFE SERGE 410 4:34:59 8,3 7:14 108 V1
332 CURTZ ROBERT 444 4:35:01 8,3 7:14 109 V1
333 MERTENS GERT 633 4:35:03 8,3 7:14 157 S
334 GOHY BENOIT 68 4:35:04 8,3 7:14 158 S
335 DIRIX LODE 474 4:35:39 8,3 7:15 35 V2
336 HUYGEBAERT HUGO 371 4:36:07 8,3 7:15 110 V1 6220
337 JASPAR STEVE 66 4:36:08 8,3 7:16 159 S
338 ROUSSELLE STÉPHANE 426 4:36:22 8,2 7:16 160 S
339 ZANGERLE HUGO 311 4:36:25 8,2 7:16 161 S
340 COLSON MICHEL 418 4:37:29 8,2 7:18 36 V2
341 NAZÉ OLIVIER 133 4:37:41 8,2 7:18 111 V1
342 WILLEMS JÉROME 475 4:38:01 8,2 7:18 162 S
343 BURGRAFF FREDERIC 683 4:38:22 8,2 7:19 112 V1
344 REZZIK MADJID 201 4:38:24 8,2 7:19 113 V1
345 MERCENIER BENǪT 608 4:38:55 8,2 7:20 163 S
346 BERTRAND VALERY 453 4:38:57 8,2 7:20 164 S
347 DECLERCQ JOE 284 4:39:16 8,2 7:20 37 V2
348 METSU PIETER 809 4:39:22 8,2 7:21 165 S
349 WOLF ALEXIS 29 4:39:24 8,2 7:21 114 V1
350 CORNET RÉGIS 571 4:39:40 8,2 7:21 115 V1
351 WAROUX PATRICK 663 4:39:45 8,1 7:21 38 V2
352 BLAUWART EMMANUEL 130 4:39:47 8,1 7:21 116 V1
353 FIEVEZ NICOLAS 188 4:39:49 8,1 7:21 39 V2
354 HAGELSTEIN ERIC 408 4:40:02 8,1 7:22 166 S
355 FRAIPONT JEAN MARC 670 4:40:10 8,1 7:22 117 V1
356 OLLINGER FRANCOIS 374 4:40:22 8,1 7:22 167 S
357 LABROT JORIS 254 4:40:41 8,1 7:23 168 S
358 HEINRICHS FRANCOIS 631 4:40:50 8,1 7:23 169 S
359 HALUT PIERRE 239 4:41:05 8,1 7:23 170 S
360 PIELA RUDY 584 4:41:27 8,1 7:24 171 S
361 BEULEN BRUNO 398 4:41:36 8,1 7:24 172 S
362 BOSKIN JEAN CLAUDE 711 4:41:42 8,1 7:24 4 V3
363 SCHYNS ANNE 815 4:41:55 8,1 7:25 3 A2
364 HIGNY MARC 816 4:41:55 8,1 7:25 40 V2
365 HEYNDRICKX JAN 432 4:42:34 8,1 7:26 41 V2
366 STARCK SEBASTIEN 211 4:42:42 8,1 7:26 173 S
367 DEGEMBE WILLIAM 785 4:42:44 8,1 7:26 174 S
368 GOOSSE PHILIPPE 621 4:43:23 8,0 7:27 42 V2
369 HEUKEMES ALAIN 412 4:43:32 8,0 7:27 118 V1
370 GODFROID NATHALIE 580 4:43:46 8,0 7:28 13 A1
371 LEROY THEO 701 4:43:56 8,0 7:28 43 V2
372 WOUTERS YVES 385 4:44:12 8,0 7:28 119 V1
373 DEWILDER NICOLE 280 4:44:20 8,0 7:28 4 A2 3933
374 TOUSSAINT IVAN 57 4:44:29 8,0 7:29 175 S
375 MONTERO PIERRE 294 4:44:30 8,0 7:29 44 V2
376 BOURLARD MAXENCE 179 4:44:32 8,0 7:29 176 S
377 DEPAS GREGORY 796 4:44:39 8,0 7:29 177 S
378 DE WAN BARBARA 802 4:44:44 8,0 7:29 14 A1
379 WROBEL PHILIPPE 558 4:45:13 8,0 7:30 178 S
380 LAMBERT BENOIT 275 4:45:16 8,0 7:30 120 V1
381 DUBOIS SAMUEL 582 4:45:21 8,0 7:30 179 S
382 DEFLANDRE JEAN-MARIE 262 4:45:47 8,0 7:31 45 V2
383 CHRIST JEAN 685 4:45:52 8,0 7:31 46 V2
384 POLIS LUCIENNE 312 4:45:58 8,0 7:31 5 A2
385 DEGUELDRE JEAN-LOUIS 308 4:46:04 8,0 7:31 47 V2 3879
386 JANSEN SASCHA 273 4:46:12 8,0 7:31 121 V1
387 SIMON FABIENNE 593 4:46:16 8,0 7:32 6 A2
388 LAHOUSTE SÉBASTIEN 619 4:46:23 8,0 7:32 180 S
389 DUBOIS GEOFFREY 268 4:46:35 8,0 7:32 181 S
390 ALONSO HERNANDEZ MARCO 148 4:47:27 7,9 7:33 182 S
391 BOGAR TONY 462 4:47:31 7,9 7:33 48 V2
392 VANDERGEETEN JEOFFREY 286 4:47:40 7,9 7:34 183 S
393 BUHRS ARNOUD 442 4:48:15 7,9 7:35 49 V2
394 LAMBLIN XAVIER 195 4:48:32 7,9 7:35 122 V1
395 HENDRICKX HARRIE 326 4:48:48 7,9 7:36 5 V3
396 GOFFE NICOLAS 278 4:48:53 7,9 7:36 184 S
397 DELNOY OLIVIER 652 4:48:53 7,9 7:36 123 V1
398 GROLLINGER THIERRY 455 4:49:09 7,9 7:36 50 V2
399 SAEN DOMINIQUE 636 4:49:11 7,9 7:36 51 V2
400 DEFRAENE ARTURO 615 4:50:47 7,8 7:39 124 V1
401 KULLMANN CLAIRE 692 4:50:55 7,8 7:39 13 D
402 LALLEMANT STEPHANIE 638 4:50:58 7,8 7:39 15 A1
403 ANDRÉ CARLOS 396 4:51:01 7,8 7:39 125 V1
404 JANNECK TOBIAS 54 4:51:04 7,8 7:39 185 S
405 ARTUS ISABELLE 306 4:51:14 7,8 7:39 16 A1
406 VERREYT ERWIN 86 4:51:42 7,8 7:40 126 V1
407 LAMBY MARC 269 4:51:52 7,8 7:40 127 V1
408 ROLAND FRANCOIS 297 4:52:05 7,8 7:41 186 S
409 WEYRICH PIERRE 95 4:52:34 7,8 7:41 128 V1
410 FORTEMPS MICHEL 390 4:52:39 7,8 7:42 52 V2
411 WATELET JENNY 334 4:52:40 7,8 7:42 17 A1
412 ETIENNE XAVIER 351 4:52:42 7,8 7:42 129 V1
413 TURCQ BRIGITTE 205 4:52:55 7,8 7:42 18 A1
414 VAN DEN EEDE NOELLE 92 4:52:58 7,8 7:42 7 A2
415 NICOLET ANNE 209 4:53:00 7,8 7:42 19 A1
416 SIMON MAGALI 319 4:53:06 7,8 7:42 20 A1
417 STAINIER ERIC 833 4:53:18 7,8 7:43 53 V2
418 HENROTAY ROLAND 67 4:53:24 7,8 7:43 187 S
419 KOPETZH CHRISTOPHE 159 4:53:55 7,8 7:44 130 V1
420 TAAPKE KORNEL 214 4:54:14 7,7 7:44 188 S
421 SAFIN ANTOINE 350 4:54:34 7,7 7:45 189 S
422 DE STAERCKE JEAN-BENOIT 117 4:55:14 7,7 7:46 54 V2
423 GRENIER STEPHANE 811 4:55:19 7,7 7:46 131 V1
424 PIRLOT XAVIER 441 4:55:42 7,7 7:46 190 S
425 BARTELEN STAN 447 4:56:00 7,7 7:47 132 V1
426 BOSKIN SIMON 712 4:56:16 7,7 7:47 191 S
427 COUNSON MANUEL 7 4:56:31 7,7 7:48 192 S
428 GUILLAIN BRUNO 192 4:57:17 7,7 7:49 133 V1
429 GUILBERT CÉDRIC 191 4:57:17 7,7 7:49 193 S
430 CEROUTER GWENDOLINE 182 4:57:21 7,7 7:49 14 D
431 KESTELOOT JEAN PIERRE 10 4:57:37 7,7 7:49 194 S
432 VERHAEGHE DIRK 320 4:57:53 7,7 7:50 134 V1
433 ROBERT STEFAAN 208 4:57:53 7,7 7:50 135 V1
434 DECOO WIM 223 4:57:53 7,7 7:50 136 V1
435 TASSET CHRISTIAN 38 4:58:11 7,6 7:50 55 V2
436 VINDERS JOS 365 4:58:13 7,6 7:50 56 V2
437 LESPAGNARD JEAN-MARC 123 4:58:20 7,6 7:51 137 V1
438 HOSTE PETER 402 4:58:41 7,6 7:51 57 V2
439 DE SADELEER WINOC 430 4:58:41 7,6 7:51 58 V2
440 DENORME EMILIE 186 4:58:44 7,6 7:51 15 D
441 TRENTESEAUX JACQUES 517 4:58:58 7,6 7:52 59 V2
442 VANVLASSELAER CÉCILE 389 4:59:15 7,6 7:52 21 A1
443 CASTELA DELPHINE 74 4:59:15 7,6 7:52 16 D
444 PRETO ALAIN 803 4:59:22 7,6 7:52 138 V1
445 DENIS CHANTAL 439 4:59:43 7,6 7:53 22 A1
446 DAWIRS ROBERT 722 4:59:51 7,6 7:53 139 V1
447 GIACCHETTA STEPHANE 706 5:00:30 7,6 7:54 140 V1
448 ADLER JAN 256 5:01:07 7,6 7:55 141 V1
449 MEIKLE SILVIA 255 5:01:07 7,6 7:55 8 A2
450 DE RYCKE BJORN 795 5:01:35 7,6 7:56 195 S
451 NEMANN BRUNO 290 5:02:38 7,5 7:57 196 S
452 MAES LUC 460 5:03:08 7,5 7:58 6 V3 5158
453 KRAUSE MICHAEL 153 5:03:13 7,5 7:58 142 V1
454 KREUZBERG GUIDO 738 5:03:13 7,5 7:58 143 V1
455 LONGCHAMPS HERVÉ 197 5:03:22 7,5 7:59 144 V1
456 SIMON BABOU 315 5:03:26 7,5 7:59 2 A3
457 STALPORT CAROLE 825 5:03:26 7,5 7:59 17 D
458 LEMMENS CHRISTOPHE 116 5:03:31 7,5 7:59 145 V1
459 DECHAMPS HENRI 34 5:03:57 7,5 7:59 60 V2
460 GOUWENS MARCO 6 5:04:47 7,5 8:01 146 V1
461 YSKOUT MARKIAN 821 5:06:40 7,4 8:04 197 S
462 VAN ELS JEROEN 61 5:06:50 7,4 8:04 198 S
463 KROONEN FABRICE 472 5:07:43 7,4 8:05 147 V1
464 VLOEMANS VINCENT 364 5:07:45 7,4 8:05 61 V2
465 DIERENS DENNIS 403 5:07:50 7,4 8:06 148 V1
466 BASTIN PAUL 279 5:08:00 7,4 8:06 7 V3
467 POURBAIX TONY 496 5:08:12 7,4 8:06 149 V1
468 LINDER LAURENCE 220 5:08:15 7,4 8:06 23 A1
469 SAUVEUR ALAIN 624 5:08:22 7,4 8:06 62 V2
470 DELINCÉ PERRINE 30 5:08:24 7,4 8:06 24 A1
471 BADIN DIRK 605 5:08:27 7,4 8:07 199 S
472 RANDAXHE ARNAUD 433 5:08:47 7,4 8:07 1 EG
473 DUMOULIN JEAN-LUC 718 5:09:01 7,4 8:07 150 V1
474 CARLON ANNE SOPHIE 181 5:09:57 7,4 8:09 25 A1
475 CHEBIL RAMI 423 5:10:55 7,3 8:10 200 S
476 HOUCKE PHILIPPE 641 5:12:24 7,3 8:13 63 V2
477 VALENCOUR RÉGINE 642 5:12:24 7,3 8:13 9 A2
478 LEUNISSE ERIK 215 5:12:38 7,3 8:13 201 S
479 SPINEUX BERNARD 265 5:14:14 7,3 8:16 64 V2
480 BRANDT HÉLÈNE 357 5:14:28 7,3 8:16 10 A2
481 LAMBERT CARINE 476 5:14:28 7,3 8:16 26 A1
482 MATHELART PIERRE 609 5:15:42 7,2 8:18 65 V2
483 DECLERCQ BENOIT 218 5:16:12 7,2 8:19 202 S 4520
484 WILLEMS BRUNO 174 5:16:12 7,2 8:19 66 V2
485 MICHEL JEAN-MARC 473 5:16:35 7,2 8:19 67 V2
486 JOMS STEVEN 719 5:16:49 7,2 8:20 203 S
487 DE VOLDER MARIO 529 5:16:52 7,2 8:20 68 V2
488 VAN GOETHEM DANIEL 8 5:17:44 7,2 8:21 151 V1
489 AMANT NICOLAS 807 5:18:12 7,2 8:22 204 S
490 LIEGEOIS VINCENT 489 5:18:14 7,2 8:22 205 S
491 EYEN CLAIRE 510 5:18:16 7,2 8:22 11 A2
492 SIMON PHILIPPE 602 5:18:39 7,2 8:23 152 V1
493 DAAMS GEORGE 101 5:18:57 7,1 8:23 69 V2
494 DENIS VINCENT 263 5:19:31 7,1 8:24 70 V2
495 CARTON HUBERT 726 5:19:31 7,1 8:24 71 V2
496 DE SADELEER LIESBETH 688 5:20:11 7,1 8:25 27 A1
497 LUXEN REMI 43 5:20:20 7,1 8:25 153 V1
498 STARK PATRICK 210 5:20:20 7,1 8:25 154 V1
499 VANDENDORPE LUC 698 5:21:38 7,1 8:27 72 V2
500 GEERTS ALAIN 699 5:21:38 7,1 8:27 73 V2
501 FRAIKIN MAXIME 149 5:21:45 7,1 8:28 206 S
502 LIBOTTE VIRGINIE 413 5:21:50 7,1 8:28 28 A1
503 SCHENKELAARS DICK 594 5:22:09 7,1 8:28 74 V2
504 VAN PEE JOHAN 233 5:23:15 7,1 8:30 155 V1 5931
505 DARCIS FREDERIC 354 5:23:21 7,1 8:30 156 V1
506 MANSET PIERRE 666 5:23:22 7,1 8:30 207 S
507 HEEMSKERK SIMONE 9 5:23:45 7,0 8:31 29 A1
508 ANTONISSEN DIMITRI 103 5:24:12 7,0 8:31 157 V1
509 MEDART FABIAN 459 5:24:57 7,0 8:33 158 V1
510 GILLES CHANTAL 241 5:25:21 7,0 8:33 3 A3
511 VAN DER STOCHT CHRISTOPH 687 5:27:23 7,0 8:36 159 V1
512 GRANNEMAN RICHARD 346 5:28:13 6,9 8:38 160 V1
513 WESTBROEK JORGEN 348 5:28:13 6,9 8:38 161 V1
514 VAN DEN BOSCH MAGGIE 126 5:28:25 6,9 8:38 12 A2
515 DEHOUX PAUL 352 5:28:25 6,9 8:38 162 V1
516 BARBEAU JEROME 342 5:28:42 6,9 8:39 163 V1
517 DELFERIER CORALIE 829 5:28:42 6,9 8:39 18 D
518 LHOAS FRANCOISE 828 5:28:42 6,9 8:39 13 A2
519 VAN DEN BROECK MAURICE 524 5:29:23 6,9 8:40 8 V3
520 DEPRAETERE PEDRO 236 5:31:03 6,9 8:42 164 V1
521 PLETINCKX MARTINE 401 5:31:09 6,9 8:42 4 A3
522 DABOMPRE JEAN-FRANCOIS 405 5:33:32 6,8 8:46 165 V1
523 THONON PASCAL 458 5:33:33 6,8 8:46 208 S
524 RAUW OLIVIER 650 5:33:39 6,8 8:46 75 V2
525 FETTWEIS THIERRY 732 5:34:04 6,8 8:47 76 V2
526 HENNEN OLIVIER 838 5:34:14 6,8 8:47 166 V1
527 ESSERS FRANCOIS 375 5:35:24 6,8 8:49 209 S
528 MATHIEU VINCENT 81 5:35:26 6,8 8:49 167 V1
529 BERODE JÉROME 356 5:35:31 6,8 8:49 168 V1
530 LOESENBORGH OLIVIER 41 5:35:31 6,8 8:49 169 V1
531 SPUTAEL OLIVIER 378 5:37:42 6,8 8:53 210 S
532 CORNET VANESSA 654 5:39:43 6,7 8:56 30 A1
533 WAERTS ALAIN 643 5:41:45 6,7 8:59 9 V3 9999
534 BEBOURECHE ABDELKRIM 177 5:42:46 6,7 9:01 77 V2
535 SEVERIN DIRK 823 5:43:20 6,6 9:02 211 S
536 AHMAD FADZLI 368 5:43:37 6,6 9:02 212 S
537 PIRONNET ERIC 93 5:45:33 6,6 9:05 78 V2
538 VERLINDEN JEF 369 5:48:44 6,5 9:10 10 V3
539 DUPONT PATRICK 309 5:48:53 6,5 9:10 170 V1
540 RAMAEKERS ISABELLE 227 5:51:11 6,5 9:14 5 A3
541 HELLEPUTTE BENEDICTE 221 5:52:21 6,5 9:16 14 A2
542 LOMBA EMMANUEL 697 5:53:46 6,4 9:18 213 S
543 HOUART NICOLAS 788 5:53:46 6,4 9:18 214 S
544 LEMAN CYR-DAVID 196 5:56:07 6,4 9:22 171 V1
545 SEVERIN JAN 370 5:56:07 6,4 9:22 79 V2
546 LIBERT HAROLD 166 5:56:36 6,4 9:23 215 S
547 VANHERCK PIERRE 391 5:56:36 6,4 9:23 172 V1
548 DABEE ANNE-FRANCE 338 5:59:01 6,4 9:26 31 A1
549 MARQUET GENEVIEVE 716 5:59:32 6,3 9:27 32 A1
550 ONNAU SERGE 679 5:59:32 6,3 9:27 173 V1
551 JESSA JOHAN 305 6:01:16 6,3 9:30 174 V1
552 MAZZAGLIA PIETRO 592 6:01:16 6,3 9:30 175 V1
553 STEVENS EEFJE 31 6:01:37 6,3 9:30 19 D
554 PAESHUYSE HANS 32 6:01:37 6,3 9:30 176 V1
555 BAIWY NICOLAS 417 6:04:36 6,3 9:35 11 V3
556 VAN DER GIESSEN BEN 662 6:31:44 5,8 10:18 80 V2
557 PRIESTER ELS 600 6:31:44 5,8 10:18 15 A2
558 JANDRAIN SÉBASTIEN 132 6:36:38 5,7 10:26 216 S
559 RYSENAER MICHEL 260 6:45:46 5,6 10:40 1 V4
560 ANNEGARN ELSI 172 6:59:17 5,4 11:02 6 A3
561 HAVRELUK MICHA 171 6:59:17 5,4 11:02 12 V3
562 DANG OLIVIER 100 7:07:26 5,3 11:14 177 V1